MEASAT-3A

Last updated on Sept. 28, 2020, 5:45 a.m. UTC

1 35362U 09032A   20271.82626328 -.00000265  00000-0  00000-0 0  9996
2 35362   0.0329 213.1243 0003157 345.4314 197.4778  1.00273246 41295
UTC
Height (km)
Latitude
Longitude
Inclination
Orbital Period
UTC large
Height (km)
Speed (km/s)
/
Latitude / Longitude
Inclination (degrees)
Orbital Period (minutes)
Azimuth
Elevation
Range (km)
Doppler Factor
iOS Compass Heading
iOS Angle

Next 30 passes for location: Hong Kong

Rise time Rise Azimuth (degrees) Set time Set Azimuth (degrees) Duration Max altitude (degrees)

No matching passes for this satellites